Location: ActonStarParty
(42.4766°N, 71.4538°W)
Time: 19:54:34
(UTC-04:00)

ATLAS 5 CENTAUR R/B - Visible Passes

Search period start: 31 March 2015 00:00
Search period end: 10 April 2015 00:00
Orbit: 350 x 14892 km, 60.8° (Epoch: 11 March)

Date Brightness Start Highest point End Pass type
(mag) Time Alt. Az. Time Alt. Az. Time Alt. Az.
31 Mar 9.0 03:26:10 10° SE 04:34:10 36° E 05:56:31 10° NE visible
01 Apr 9.4 02:41:44 10° ESE 03:26:19 23° E 04:41:44 10° NE visible
02 Apr 9.8 02:14:31 10° ENE 02:22:23 12° ENE 03:20:04 10° NE visible
02 Apr 8.5 05:28:48 10° S 07:12:04 76° ESE 08:30:06 10° NE visible
03 Apr 8.6 04:24:36 10° SSE 05:55:06 60° ESE 07:18:31 10° NE visible
04 Apr 8.8 03:25:32 10° SE 04:42:03 44° E 06:06:17 10° NE visible
05 Apr 9.1 02:34:49 10° ESE 03:32:24 30° E 04:52:38 10° NE visible
06 Apr 9.5 01:57:24 10° E 02:26:19 17° ENE 03:35:31 10° NE visible
06 Apr 8.4 05:35:07 10° S 07:24:33 84° ESE 08:38:46 10° NE visible
07 Apr 8.5 04:28:52 10° SSE 06:05:13 68° ESE 07:27:14 10° NE visible
08 Apr 8.6 03:26:45 10° SSE 04:50:11 52° E 06:15:12 10° NE visible
09 Apr 8.9 02:31:07 10° SE 03:38:49 37° E 05:02:13 10° NE visible
